Flag for Switzerland Weather past 2 weeks in Chur, Graubünden, Switzerland

Now
43 °F

Quite cool.


Feels Like: 43 °F
Forecast: 31 / 49 °F
Wind: 1 mph from Southwest

Location: Chur-Ems

Current Time: Mar 2, 2015 at 12:45:16 PM

Latest Report: Mar 2, 2015 at 12:00 PM


Visibility: N/A

Pressure: 29.88 "Hg

Humidity: 88%

Dew point: 40 °F

Location of ChurLocation

Historic Weather in Chur — Graph

°F

Chur temperature yesterday

Maximum temperature yesterday: 52 °F (at 3:00 PM)
Minimum temperature yesterday: 33 °F (at 12:00 AM)
Average temperature yesterday: 42 °F

Past Weeks' High & Low Weather Summary

 TemperatureHumidityPressure
High55 °F (Feb 16, 3:00 PM)96% (Mar 2, 7:00 AM)30.73 "Hg (Mar 2, 7:00 AM)
Low25 °F (Feb 19, 5:00 AM)19% (Feb 20, 2:00 PM)29.47 "Hg (Feb 21, 2:00 PM)
Average37 °F67%30.08 "Hg
* Reported Feb 15 11:00 AM — Mar 2 11:00 AM, Chur, Weather by CustomWeather, © 2015

Note: Actual official high and low records may vary slightly from our data, if they occured in-between our weather recording intervals... More about our weather records

Advertising

Chur weather history for previous 24 hours

 ConditionsComfort  
Time TempWeatherWind HumidityBarometerVisibility
11:00 AM
Mon, Mar 2
43 °FQuite cool.2 mph92%29.88 "HgN/A
10:00 AM42 °FRain. Overcast.3 mph93%29.90 "Hg5 mi
9:00 AM41 °FQuite cool.1 mph95%29.88 "HgN/A
8:00 AM41 °FQuite cool.2 mph95%29.85 "HgN/A
7:00 AM40 °FRain. Overcast.1 mph96%29.85 "Hg4 mi
6:00 AM41 °FQuite cool.3 mph89%29.85 "HgN/A
5:00 AM41 °FQuite cool.2 mph85%29.85 "HgN/A
4:00 AM42 °FRain. Overcast.5 mph78%29.85 "Hg7 mi
3:00 AM43 °FQuite cool.8 mph66%29.84 "HgN/A
2:00 AM42 °FQuite cool.7 mph73%29.87 "HgN/A
1:00 AM42 °FOvercast.3 mph70%29.89 "Hg10 mi
12:00 AM42 °FQuite cool.2 mph69%29.89 "HgN/A
11:00 PM
Sun, Mar 1
42 °FQuite cool.3 mph71%29.91 "HgN/A
10:00 PM41 °FPassing clouds.7 mph74%29.90 "Hg11 mi
9:00 PM42 °FQuite cool.2 mph78%29.94 "HgN/A
8:00 PM41 °FQuite cool.2 mph78%29.93 "HgN/A
7:00 PM45 °FOvercast.1 mph68%29.92 "Hg11 mi
6:00 PM47 °FCool.5 mph62%29.89 "HgN/A
5:00 PM49 °FCool.3 mph55%29.86 "HgN/A
4:00 PM51 °FPartly sunny.8 mph54%29.87 "Hg12 mi
3:00 PM52 °FCool.8 mph49%29.87 "HgN/A
2:00 PM52 °FCool.9 mph48%29.89 "HgN/A
1:00 PM50 °FOvercast.3 mph50%29.94 "Hg11 mi
12:00 PM47 °FCool.7 mph52%29.96 "HgN/A
Weather by CustomWeather, © 2015

See weather overviewHow to use our weather pages